Location: Bayshore Village Mobile Home Park
(26.6945°N, 81.8642°W)
Time: 14:12:10
(UTC+00:00)

Meteor 2-10 - Pass Details

Date: 17 June 2021
Orbit: 738 x 868 km, 81.2° (Epoch: 26 July)

Event Time Altitude Azimuth Distance (km) Brightness Sun altitude
Rises 01:42:09 0° 1° (N) 3,182 7.7 -15.9°
Reaches altitude 10° 01:44:33 10° 7° (N) 2,265 6.8 -16.3°
Maximum altitude 01:49:27 48° 81° (E) 989 4.3 -17.2°
Enters shadow 01:51:33 31° 136° (SE) 1,333 4.7 -17.5°
